Location: Byszew
(52.1813°N, 19.2693°E)
Time: 18:48:52
(UTC+00:00)

SJ 16-02 - Pass Details

Date: 03 March 2021
Orbit: 605 x 617 km, 75.0° (Epoch: 17 April)

Event Time Altitude Azimuth Distance (km) Brightness Sun altitude
Rises 17:55:10 0° 342° (NNW) 2,884 5.2 -14.4°
Reaches altitude 10° 17:57:41 10° 354° (N) 1,977 4.1 -14.8°
Maximum altitude 18:01:29 28° 54° (NE) 1,175 2.4 -15.3°
Enters shadow 18:02:28 25° 77° (ENE) 1,245 2.4 -15.5°
